Saratoga Shively Field Airpor, WY

4:22 PM MST on January 20, 2018 (GMT -0700)
Shively

Weather History for KSAA - January, 2014

Change the Weather History Date:

Friday, January 10, 2014

  Actual Average Record
Temperature  
Mean Temperature 22 °F -  
Max Temperature 30 °F 32 °F 42 °F (2015)
Min Temperature 15 °F 11 °F -5 °F (2016)
Degree Days  
Heating Degree Days 42    
Moisture  
Dew Point 17 °F    
Average Humidity 75    
Maximum Humidity 80    
Minimum Humidity 64    
Precipitation  
Precipitation 0.00 in - - ()
Sea Level Pressure  
Sea Level Pressure 29.79 in    
Wind  
Wind Speed 26 mph (WSW)    
Max Wind Speed 40 mph    
Max Gust Speed 47 mph    
Visibility 10 miles    
Events      
Averages and records for this station are not official NWS values.
T = Trace of Precipitation, MM = Missing Value Source: NWS Daily Summary

Daily Weather History Graph

Daily Weather History Graph

Search for Another Location

Airport or City:

Trip Planner

Search our weather history database for the weather conditions in past years. The results will help you decide how hot, cold, wet, or windy it might be!

Date:

Astronomy

Jan. 10, 2014 Rise Set
Actual Time 7:32 AM MST 4:57 PM MST
Civil Twilight 7:02 AM MST 5:28 PM MST
Nautical Twilight 6:27 AM MST 6:02 PM MST
Astronomical Twilight 5:54 AM MST 6:35 PM MST
Moon 1:03 PM MST (1/10) 2:42 AM MST (1/10)
Length of Visible Light 10h 25m
Length of Day
9h 24m
Waxing Gibbous, 75% of the Moon is Illuminated
Jan 10
Waxing Gibbous
Jan 15
Full
Jan 23
Last Quarter
Jan 30
New
Feb 6
First Quarter

Hourly Weather History & Observations

Time (MST) Temp. Windchill Dew Point Humidity Pressure Visibility Wind Dir Wind Speed Gust Speed Precip Events Conditions
12:15 AM 19.4 °F 2.1 °F 14.0 °F 80% 29.75 in 7.0 mi WSW 24.2 mph 33.4 mph N/A   Overcast
12:35 AM 19.4 °F 0.2 °F 14.0 °F 80% 29.75 in 10.0 mi WSW 31.1 mph 36.8 mph N/A   Overcast
12:55 AM 19.4 °F 1.4 °F 14.0 °F 80% 29.75 in 10.0 mi WSW 26.5 mph 34.5 mph N/A   Overcast
1:15 AM 19.4 °F 0.5 °F 14.0 °F 80% 29.75 in 10.0 mi WSW 29.9 mph 36.8 mph N/A   Overcast
1:35 AM 17.6 °F -0.6 °F 12.2 °F 79% 29.76 in 10.0 mi WSW 25.3 mph 33.4 mph N/A   Overcast
1:55 AM 17.6 °F -2.2 °F 12.2 °F 79% 29.76 in 10.0 mi West 31.1 mph 38.0 mph N/A   Mostly Cloudy
2:15 AM 17.6 °F -2.2 °F 12.2 °F 79% 29.77 in 10.0 mi West 31.1 mph 39.1 mph N/A   Scattered Clouds
2:35 AM 17.6 °F -1.3 °F 12.2 °F 79% 29.77 in 10.0 mi WSW 27.6 mph 34.5 mph N/A   Clear
2:55 AM 17.6 °F -2.2 °F 12.2 °F 79% 29.76 in 10.0 mi WSW 31.1 mph 42.6 mph N/A   Clear
3:15 AM 17.6 °F -1.3 °F 10.4 °F 73% 29.77 in 10.0 mi WSW 27.6 mph 38.0 mph N/A   Clear
3:35 AM 17.6 °F -1.3 °F 10.4 °F 73% 29.77 in 10.0 mi WSW 27.6 mph 34.5 mph N/A   Clear
3:55 AM 17.6 °F 0.5 °F 10.4 °F 73% 29.77 in 10.0 mi WSW 21.9 mph 32.2 mph N/A   Clear
4:15 AM 17.6 °F 1.3 °F 10.4 °F 73% 29.77 in 10.0 mi WSW 19.6 mph 29.9 mph N/A   Clear
4:35 AM 15.8 °F -1.9 °F 8.6 °F 73% 29.77 in 10.0 mi WSW 21.9 mph 29.9 mph N/A   Clear
4:55 AM 15.8 °F -1.9 °F 8.6 °F 73% 29.77 in 10.0 mi WSW 21.9 mph 27.6 mph N/A   Clear
5:15 AM 15.8 °F -1.5 °F 8.6 °F 73% 29.77 in 10.0 mi WSW 20.7 mph 25.3 mph N/A   Clear
5:35 AM 15.8 °F -0.2 °F 8.6 °F 73% 29.76 in 10.0 mi WSW 17.3 mph 26.5 mph N/A   Clear
5:55 AM 17.6 °F 4.3 °F 8.6 °F 68% 29.76 in 10.0 mi SSW 12.7 mph 17.3 mph N/A   Mostly Cloudy
6:15 AM 17.6 °F 4.3 °F 10.4 °F 73% 29.76 in 10.0 mi SW 12.7 mph 17.3 mph N/A   Overcast
6:35 AM 19.4 °F 7.2 °F 10.4 °F 68% 29.75 in 10.0 mi SW 11.5 mph 23.0 mph N/A   Mostly Cloudy
6:55 AM 19.4 °F - 12.2 °F 74% 29.74 in 10.0 mi Calm Calm - N/A   Overcast
7:15 AM 21.2 °F 2.4 °F 14.0 °F 74% 29.72 in 10.0 mi WSW 32.2 mph 42.6 mph N/A   Overcast
7:35 AM 19.4 °F 0.2 °F 14.0 °F 80% 29.71 in 10.0 mi WSW 31.1 mph 43.7 mph N/A   Overcast
7:55 AM 21.2 °F 2.2 °F 14.0 °F 74% 29.71 in 10.0 mi WSW 33.4 mph 40.3 mph N/A   Overcast
8:15 AM 21.2 °F 1.4 °F 14.0 °F 74% 29.72 in 10.0 mi WSW 36.8 mph 46.0 mph N/A   Overcast
8:35 AM 21.2 °F 3.9 °F 14.0 °F 74% 29.74 in 10.0 mi WSW 26.5 mph 35.7 mph N/A   Overcast
8:55 AM 21.2 °F 4.5 °F 14.0 °F 74% 29.76 in 10.0 mi WSW 24.2 mph 38.0 mph N/A   Overcast
9:15 AM 21.2 °F 3.5 °F 15.8 °F 80% 29.75 in 10.0 mi WSW 27.6 mph 33.4 mph N/A   Overcast
9:35 AM 23.0 °F 5.7 °F 15.8 °F 74% 29.75 in 10.0 mi WSW 28.8 mph 40.3 mph N/A   Overcast
9:55 AM 23.0 °F 5.4 °F 17.6 °F 80% 29.75 in 10.0 mi WSW 29.9 mph 39.1 mph N/A   Overcast
10:15 AM 23.0 °F 4.6 °F 17.6 °F 80% 29.75 in 10.0 mi WSW 33.4 mph 40.3 mph N/A   Overcast
10:35 AM 24.8 °F 5.7 °F 17.6 °F 74% 29.75 in 10.0 mi West 40.3 mph 43.7 mph N/A   Overcast
10:55 AM 26.6 °F 10.0 °F 17.6 °F 69% 29.75 in 10.0 mi WSW 31.1 mph 41.4 mph N/A   Overcast
11:15 AM 26.6 °F 9.3 °F 19.4 °F 74% 29.74 in 10.0 mi WSW 34.5 mph 44.9 mph N/A   Overcast
11:35 AM 26.6 °F 8.7 °F 19.4 °F 74% 29.74 in 10.0 mi WSW 38.0 mph 43.7 mph N/A   Overcast
11:55 AM 26.6 °F 10.6 °F 19.4 °F 74% 29.74 in 10.0 mi West 28.8 mph 40.3 mph N/A   Mostly Cloudy
12:15 PM 28.4 °F 12.3 °F 19.4 °F 69% 29.74 in 10.0 mi West 32.2 mph 47.2 mph N/A   Scattered Clouds
12:35 PM 28.4 °F 13.3 °F 21.2 °F 74% 29.74 in 10.0 mi West 27.6 mph 40.3 mph N/A   Clear
12:55 PM 30.2 °F 14.5 °F 21.2 °F 69% 29.74 in 10.0 mi West 33.4 mph 39.1 mph N/A   Clear
1:15 PM 30.2 °F 14.7 °F 21.2 °F 69% 29.73 in 10.0 mi West 32.2 mph 41.4 mph N/A   Clear
1:36 PM 30.2 °F 15.4 °F 21.2 °F 69% 29.74 in 10.0 mi West 28.8 mph 41.4 mph N/A   Clear
1:55 PM 30.2 °F 15.9 °F 21.2 °F 69% 29.73 in 10.0 mi West 26.5 mph 39.1 mph N/A   Clear
2:15 PM 30.2 °F 15.9 °F 21.2 °F 69% 29.74 in 10.0 mi West 26.5 mph 35.7 mph N/A   Scattered Clouds
2:33 PM 30.2 °F 15.7 °F 19.4 °F 64% 29.75 in 10.0 mi West 27.6 mph 35.7 mph N/A   Mostly Cloudy
2:55 PM 30.2 °F 15.7 °F 19.4 °F 64% 29.76 in 10.0 mi West 27.6 mph 32.2 mph N/A   Overcast
3:15 PM 30.2 °F 16.2 °F 19.4 °F 64% 29.76 in 10.0 mi West 25.3 mph 34.5 mph N/A   Scattered Clouds
3:35 PM 30.2 °F 16.8 °F 19.4 °F 64% 29.77 in 10.0 mi West 23.0 mph 29.9 mph N/A   Clear
3:55 PM 30.2 °F 16.8 °F 19.4 °F 64% 29.77 in 10.0 mi West 23.0 mph 31.1 mph N/A   Clear
4:15 PM 28.4 °F 14.7 °F 19.4 °F 69% 29.79 in 10.0 mi West 21.9 mph 31.1 mph N/A   Clear
4:35 PM 28.4 °F 14.4 °F 19.4 °F 69% 29.79 in 10.0 mi West 23.0 mph 28.8 mph N/A   Clear
4:55 PM 28.4 °F 14.1 °F 21.2 °F 74% 29.80 in 10.0 mi West 24.2 mph 31.1 mph N/A   Clear
5:15 PM 28.4 °F 13.5 °F 21.2 °F 74% 29.81 in 10.0 mi West 26.5 mph 34.5 mph N/A   Clear
5:35 PM 28.4 °F 13.5 °F 21.2 °F 74% 29.82 in 10.0 mi West 26.5 mph 35.7 mph N/A   Clear
5:55 PM 26.6 °F 12.4 °F 21.2 °F 80% 29.83 in 10.0 mi West 21.9 mph 31.1 mph N/A   Clear
6:15 PM 26.6 °F 12.0 °F 21.2 °F 80% 29.84 in 10.0 mi West 23.0 mph 29.9 mph N/A   Clear
6:35 PM 26.6 °F 10.6 °F 21.2 °F 80% 29.84 in 10.0 mi West 28.8 mph 34.5 mph N/A   Clear
6:55 PM 26.6 °F 10.6 °F 21.2 °F 80% 29.84 in 10.0 mi West 28.8 mph 35.7 mph N/A   Clear
7:15 PM 26.6 °F 11.4 °F 21.2 °F 80% 29.85 in 10.0 mi West 25.3 mph 35.7 mph N/A   Clear
7:35 PM 26.6 °F 11.4 °F 21.2 °F 80% 29.85 in 10.0 mi West 25.3 mph 39.1 mph N/A   Clear
7:55 PM 26.6 °F 11.4 °F 21.2 °F 80% 29.87 in 10.0 mi West 25.3 mph 36.8 mph N/A   Clear
8:15 PM 26.6 °F 11.1 °F 21.2 °F 80% 29.87 in 10.0 mi West 26.5 mph 35.7 mph N/A   Clear
8:35 PM 26.6 °F 11.4 °F 21.2 °F 80% 29.88 in 10.0 mi West 25.3 mph 33.4 mph N/A   Clear
8:55 PM 26.6 °F 12.0 °F 21.2 °F 80% 29.89 in 10.0 mi West 23.0 mph 33.4 mph N/A   Clear
9:15 PM 26.6 °F 12.4 °F 21.2 °F 80% 29.90 in 10.0 mi West 21.9 mph 31.1 mph N/A   Clear
9:35 PM 26.6 °F 12.4 °F 19.4 °F 74% 29.91 in 10.0 mi West 21.9 mph 28.8 mph N/A   Clear
9:55 PM 26.6 °F 13.1 °F 21.2 °F 80% 29.93 in 10.0 mi West 19.6 mph 29.9 mph N/A   Clear
10:15 PM 26.6 °F 12.0 °F 21.2 °F 80% 29.94 in 10.0 mi West 23.0 mph 32.2 mph N/A   Clear
10:35 PM 26.6 °F 12.7 °F 21.2 °F 80% 29.96 in 10.0 mi West 20.7 mph 34.5 mph N/A   Clear
10:55 PM 26.6 °F 14.3 °F 21.2 °F 80% 29.97 in 10.0 mi WSW 16.1 mph 25.3 mph N/A   Clear
11:15 PM 26.6 °F 10.8 °F 21.2 °F 80% 29.97 in 10.0 mi WSW 27.6 mph 31.1 mph N/A   Clear
11:35 PM 26.6 °F 11.7 °F 21.2 °F 80% 29.97 in 10.0 mi WSW 24.2 mph 31.1 mph N/A   Clear
11:55 PM 28.4 °F 14.1 °F 21.2 °F 74% 29.98 in 10.0 mi WSW 24.2 mph 35.7 mph N/A   Scattered Clouds